TimeAKDT,TemperatureF,Dew PointF,Humidity,Sea Level PressureIn,VisibilityMPH,Wind Direction,Wind SpeedMPH,Gust SpeedMPH,PrecipitationIn,Events,Conditions,WindDirDegrees,DateUTC
12:16 AM,51.8,46.4,82,30.18,10.0,WSW,4.6,-,N/A,,Unknown,240,2013-07-14 08:16:00
12:36 AM,51.8,46.4,82,30.19,10.0,Calm,Calm,-,N/A,,Unknown,0,2013-07-14 08:36:00
12:56 AM,51.8,46.4,82,30.19,10.0,WSW,3.5,-,N/A,,Unknown,240,2013-07-14 08:56:00
1:16 AM,51.8,46.4,82,30.20,10.0,WSW,4.6,-,N/A,,Unknown,240,2013-07-14 09:16:00
1:36 AM,50.0,44.6,82,30.21,10.0,Calm,Calm,-,N/A,,Unknown,0,2013-07-14 09:36:00
1:56 AM,50.0,44.6,82,30.21,10.0,Calm,Calm,-,N/A,,Unknown,0,2013-07-14 09:56:00
2:16 AM,50.0,44.6,82,30.21,10.0,Calm,Calm,-,N/A,,Unknown,0,2013-07-14 10:16:00
2:36 AM,48.2,44.6,87,30.22,10.0,Calm,Calm,-,N/A,,Unknown,0,2013-07-14 10:36:00
2:56 AM,48.2,44.6,87,30.23,10.0,Calm,Calm,-,N/A,,Unknown,0,2013-07-14 10:56:00
3:16 AM,46.4,42.8,87,30.23,10.0,Calm,Calm,-,N/A,,Unknown,0,2013-07-14 11:16:00
3:36 AM,48.2,46.4,93,30.24,10.0,South,3.5,-,N/A,,Unknown,180,2013-07-14 11:36:00
3:56 AM,50.0,46.4,87,30.24,10.0,South,5.8,-,N/A,,Unknown,190,2013-07-14 11:56:00
4:16 AM,50.0,46.4,87,30.24,10.0,Calm,Calm,-,N/A,,Unknown,0,2013-07-14 12:16:00
4:36 AM,51.8,46.4,82,30.25,10.0,Calm,Calm,-,N/A,,Unknown,0,2013-07-14 12:36:00
4:56 AM,50.0,46.4,87,30.26,10.0,SW,5.8,-,N/A,,Unknown,220,2013-07-14 12:56:00
5:16 AM,50.0,46.4,87,30.26,10.0,WSW,3.5,-,N/A,,Unknown,240,2013-07-14 13:16:00
5:36 AM,50.0,46.4,87,30.26,10.0,Calm,Calm,-,N/A,,Unknown,0,2013-07-14 13:36:00
5:56 AM,48.2,46.4,93,30.27,10.0,Calm,Calm,-,N/A,,Unknown,0,2013-07-14 13:56:00
6:16 AM,50.0,46.4,87,30.28,10.0,Calm,Calm,-,N/A,,Unknown,0,2013-07-14 14:16:00
6:36 AM,51.8,46.4,82,30.28,10.0,Calm,Calm,-,N/A,,Unknown,0,2013-07-14 14:36:00
6:56 AM,51.8,46.4,82,30.28,10.0,SSW,5.8,-,N/A,,Unknown,200,2013-07-14 14:56:00
7:16 AM,51.8,46.4,82,30.29,10.0,SSW,4.6,-,N/A,,Unknown,210,2013-07-14 15:16:00
7:36 AM,53.6,46.4,77,30.29,10.0,SW,6.9,-,N/A,,Unknown,230,2013-07-14 15:36:00
7:56 AM,53.6,46.4,77,30.29,10.0,SW,8.1,-,N/A,,Unknown,230,2013-07-14 15:56:00
8:16 AM,53.6,46.4,77,30.29,10.0,SW,4.6,-,N/A,,Unknown,220,2013-07-14 16:16:00
8:36 AM,53.6,48.2,82,30.30,10.0,SSW,4.6,-,N/A,,Unknown,200,2013-07-14 16:36:00
8:56 AM,53.6,48.2,82,30.30,10.0,SW,5.8,-,N/A,,Unknown,230,2013-07-14 16:56:00
9:16 AM,55.4,48.2,77,30.30,10.0,WSW,8.1,-,N/A,,Unknown,240,2013-07-14 17:16:00
9:36 AM,55.4,48.2,77,30.30,10.0,SSW,6.9,-,N/A,,Unknown,210,2013-07-14 17:36:00
9:56 AM,55.4,48.2,77,30.31,10.0,West,9.2,-,N/A,,Unknown,260,2013-07-14 17:56:00
10:16 AM,55.4,48.2,77,30.31,10.0,WSW,9.2,-,N/A,,Unknown,240,2013-07-14 18:16:00
10:36 AM,55.4,48.2,77,30.31,10.0,WSW,8.1,-,N/A,,Unknown,250,2013-07-14 18:36:00
10:56 AM,55.4,48.2,77,30.31,10.0,SW,8.1,-,N/A,,Unknown,220,2013-07-14 18:56:00
11:16 AM,57.2,46.4,67,30.31,10.0,WSW,6.9,-,N/A,,Unknown,250,2013-07-14 19:16:00
11:36 AM,57.2,48.2,72,30.31,10.0,South,5.8,-,N/A,,Unknown,180,2013-07-14 19:36:00
11:56 AM,59.0,48.2,67,30.31,10.0,WSW,8.1,-,N/A,,Unknown,240,2013-07-14 19:56:00
12:16 PM,57.2,48.2,72,30.31,10.0,West,6.9,-,N/A,,Unknown,280,2013-07-14 20:16:00
12:36 PM,59.0,48.2,67,30.32,10.0,SW,6.9,-,N/A,,Unknown,230,2013-07-14 20:36:00
12:56 PM,60.8,48.2,63,30.32,10.0,West,4.6,-,N/A,,Unknown,270,2013-07-14 20:56:00
1:16 PM,60.8,48.2,63,30.31,10.0,West,8.1,-,N/A,,Unknown,280,2013-07-14 21:16:00
1:36 PM,60.8,48.2,63,30.31,10.0,West,12.7,-,N/A,,Unknown,270,2013-07-14 21:36:00
1:56 PM,60.8,48.2,63,30.31,10.0,WNW,9.2,-,N/A,,Unknown,290,2013-07-14 21:56:00
2:16 PM,60.8,48.2,63,30.31,10.0,WNW,6.9,-,N/A,,Unknown,290,2013-07-14 22:16:00
2:36 PM,62.6,50.0,63,30.31,10.0,WNW,8.1,-,N/A,,Unknown,290,2013-07-14 22:36:00
2:56 PM,60.8,50.0,68,30.31,10.0,WNW,10.4,16.1,N/A,,Unknown,290,2013-07-14 22:56:00
3:16 PM,62.6,50.0,63,30.31,10.0,West,11.5,-,N/A,,Unknown,270,2013-07-14 23:16:00
3:36 PM,62.6,50.0,63,30.30,10.0,WNW,11.5,-,N/A,,Unknown,290,2013-07-14 23:36:00
3:56 PM,62.6,48.2,59,30.30,10.0,WNW,10.4,-,N/A,,Unknown,290,2013-07-14 23:56:00
4:16 PM,62.6,50.0,63,30.30,10.0,WNW,11.5,17.3,N/A,,Unknown,300,2013-07-15 00:16:00
4:36 PM,62.6,48.2,59,30.30,10.0,WNW,11.5,-,N/A,,Unknown,300,2013-07-15 00:36:00
4:56 PM,62.6,48.2,59,30.30,10.0,West,9.2,-,N/A,,Unknown,280,2013-07-15 00:56:00
5:16 PM,62.6,48.2,59,30.29,10.0,West,10.4,-,N/A,,Unknown,270,2013-07-15 01:16:00
5:36 PM,62.6,48.2,59,30.29,10.0,West,12.7,-,N/A,,Unknown,280,2013-07-15 01:36:00
5:56 PM,62.6,48.2,59,30.29,10.0,WNW,15.0,-,N/A,,Unknown,290,2013-07-15 01:56:00
6:16 PM,62.6,48.2,59,30.29,10.0,West,13.8,-,N/A,,Unknown,280,2013-07-15 02:16:00
6:36 PM,62.6,48.2,59,30.29,10.0,SW,12.7,-,N/A,,Unknown,220,2013-07-15 02:36:00
6:56 PM,62.6,48.2,59,30.29,10.0,WSW,9.2,17.3,N/A,,Unknown,240,2013-07-15 02:56:00
7:16 PM,60.8,48.2,63,30.29,10.0,West,11.5,-,N/A,,Unknown,270,2013-07-15 03:16:00
7:36 PM,60.8,48.2,63,30.29,10.0,West,11.5,-,N/A,,Unknown,270,2013-07-15 03:36:00
7:56 PM,60.8,48.2,63,30.29,10.0,WSW,10.4,-,N/A,,Unknown,250,2013-07-15 03:56:00
8:16 PM,60.8,46.4,59,30.29,10.0,WSW,10.4,-,N/A,,Unknown,240,2013-07-15 04:16:00
8:36 PM,59.0,46.4,63,30.29,10.0,WSW,9.2,-,N/A,,Unknown,250,2013-07-15 04:36:00
8:56 PM,59.0,46.4,63,30.29,10.0,WSW,10.4,-,N/A,,Unknown,250,2013-07-15 04:56:00
9:16 PM,57.2,46.4,67,30.29,10.0,WSW,4.6,-,N/A,,Unknown,240,2013-07-15 05:16:00
9:36 PM,57.2,46.4,67,30.29,10.0,WSW,9.2,-,N/A,,Unknown,240,2013-07-15 05:36:00
9:56 PM,57.2,46.4,67,30.29,10.0,WSW,8.1,-,N/A,,Unknown,250,2013-07-15 05:56:00
10:16 PM,55.4,46.4,72,30.29,10.0,WSW,6.9,-,N/A,,Unknown,240,2013-07-15 06:16:00
10:36 PM,55.4,46.4,72,30.30,10.0,WSW,9.2,-,N/A,,Unknown,250,2013-07-15 06:36:00
10:56 PM,55.4,46.4,72,30.30,10.0,WSW,8.1,-,N/A,,Unknown,240,2013-07-15 06:56:00
11:16 PM,53.6,44.6,72,30.30,10.0,WSW,9.2,-,N/A,,Unknown,250,2013-07-15 07:16:00
11:36 PM,53.6,44.6,72,30.31,10.0,WSW,6.9,-,N/A,,Unknown,240,2013-07-15 07:36:00
11:56 PM,53.6,44.6,72,30.31,10.0,SW,4.6,-,N/A,,Unknown,220,2013-07-15 07:56:00